Time,TemperatureF,DewpointF,PressureIn,WindDirection,WindDirectionDegrees,WindSpeedMPH,WindSpeedGustMPH,Humidity,HourlyPrecipIn,Conditions,Clouds,dailyrainin,SoftwareType,DateUTC
2013-11-29 07:15:00,29.3,23.9,30.28,South,190,18.0,19.0,80,0.00,,---,0.00,VWS V14.01,2013-11-29 15:15:00,
2013-11-29 07:16:00,29.3,23.9,30.28,SSW,207,14.0,20.0,80,0.00,,---,0.00,VWS V14.01,2013-11-29 15:16:00,
2013-11-29 07:17:00,29.2,23.8,30.28,SSW,206,15.0,20.0,80,0.00,,---,0.00,VWS V14.01,2013-11-29 15:17:00,
2013-11-29 07:20:00,29.2,23.8,30.28,SSW,202,18.0,22.0,80,0.00,,---,0.00,VWS V14.01,2013-11-29 15:20:00,
2013-11-29 07:21:00,29.2,23.8,30.28,SW,217,16.0,22.0,80,0.00,,---,0.00,VWS V14.01,2013-11-29 15:21:00,
2013-11-29 07:23:00,29.1,23.7,30.28,SSW,196,11.0,22.0,80,0.00,,---,0.00,VWS V14.01,2013-11-29 15:23:00,
2013-11-29 07:26:00,29.0,23.6,30.29,SW,234,19.0,23.0,80,0.00,,---,0.00,VWS V14.01,2013-11-29 15:26:00,
2013-11-29 07:27:00,29.0,23.6,30.29,SSW,200,16.0,23.0,80,0.00,,---,0.00,VWS V14.01,2013-11-29 15:27:00,
2013-11-29 07:29:00,29.0,23.6,30.29,SSW,194,11.0,23.0,80,0.00,,---,0.00,VWS V14.01,2013-11-29 15:29:00,
2013-11-29 07:31:00,29.0,23.6,30.29,SSW,213,15.0,23.0,80,0.00,,---,0.00,VWS V14.01,2013-11-29 15:31:00,
2013-11-29 07:32:00,29.0,23.6,30.29,SSW,196,16.0,23.0,80,0.00,,---,0.00,VWS V14.01,2013-11-29 15:32:00,
2013-11-29 07:34:00,29.1,23.7,30.29,SW,221,10.0,21.0,80,0.00,,---,0.00,VWS V14.01,2013-11-29 15:34:00,
2013-11-29 07:37:00,29.1,23.7,30.29,South,188,13.0,21.0,80,0.00,,---,0.00,VWS V14.01,2013-11-29 15:37:00,
2013-11-29 07:38:00,29.2,23.8,30.30,SW,216,16.0,21.0,80,0.00,,---,0.00,VWS V14.01,2013-11-29 15:38:00,
2013-11-29 07:39:00,29.2,23.8,30.30,South,180,16.0,21.0,80,0.00,,---,0.00,VWS V14.01,2013-11-29 15:39:00,
2013-11-29 07:43:00,29.2,23.8,30.30,SSW,202,11.0,18.0,80,0.00,,---,0.00,VWS V14.01,2013-11-29 15:43:00,
2013-11-29 07:44:00,29.2,23.8,30.30,SSW,212,15.0,18.0,80,0.00,,---,0.00,VWS V14.01,2013-11-29 15:44:00,
2013-11-29 07:45:00,29.3,23.9,30.30,SSW,198,14.0,21.0,80,0.00,,---,0.00,VWS V14.01,2013-11-29 15:45:00,
2013-11-29 07:46:00,29.3,23.9,30.30,SSW,205,14.0,21.0,80,0.00,,---,0.00,VWS V14.01,2013-11-29 15:46:00,
2013-11-29 07:47:00,29.3,23.9,30.30,SW,232,13.0,21.0,80,0.00,,---,0.00,VWS V14.01,2013-11-29 15:47:00,
2013-11-29 07:49:00,29.4,24.0,30.30,SSW,198,20.0,23.0,80,0.00,,---,0.00,VWS V14.01,2013-11-29 15:49:00,
2013-11-29 07:50:00,29.4,24.0,30.30,South,183,13.0,23.0,80,0.00,,---,0.00,VWS V14.01,2013-11-29 15:50:00,
2013-11-29 07:51:00,29.5,24.1,30.30,SW,221,13.0,23.0,80,0.00,,---,0.00,VWS V14.01,2013-11-29 15:51:00,
2013-11-29 07:52:00,29.6,24.2,30.30,SW,215,12.0,15.0,80,0.00,,---,0.00,VWS V14.01,2013-11-29 15:52:00,
2013-11-29 07:53:00,29.6,24.2,30.30,SW,232,19.0,19.0,80,0.00,,---,0.00,VWS V14.01,2013-11-29 15:53:00,
2013-11-29 07:55:00,29.8,24.4,30.30,SSW,208,19.0,22.0,80,0.00,,---,0.00,VWS V14.01,2013-11-29 15:55:00,
2013-11-29 07:58:00,30.0,24.3,30.30,SSW,192,18.0,23.0,79,0.00,,---,0.00,VWS V14.01,2013-11-29 15:58:00,
2013-11-29 07:59:00,30.1,24.4,30.30,SW,217,13.0,23.0,79,0.00,,---,0.00,VWS V14.01,2013-11-29 15:59:00,
2013-11-29 08:00:00,30.2,24.5,30.30,SW,230,17.0,23.0,79,0.00,,---,0.00,VWS V14.01,2013-11-29 16:00:00,
2013-11-29 08:03:00,30.3,24.6,30.31,WSW,240,21.0,23.0,79,0.00,,---,0.00,VWS V14.01,2013-11-29 16:03:00,
2013-11-29 08:04:00,30.3,24.6,30.30,South,190,19.0,23.0,79,0.00,,---,0.00,VWS V14.01,2013-11-29 16:04:00,
2013-11-29 08:05:00,30.3,24.6,30.30,SW,220,13.0,23.0,79,0.00,,---,0.00,VWS V14.01,2013-11-29 16:05:00,
2013-11-29 08:06:00,30.3,24.6,30.30,SW,217,17.0,23.0,79,0.00,,---,0.00,VWS V14.01,2013-11-29 16:06:00,
2013-11-29 08:09:00,30.3,24.6,30.30,SSW,198,15.0,24.0,79,0.00,,---,0.00,VWS V14.01,2013-11-29 16:09:00,
2013-11-29 08:11:00,30.4,24.7,30.30,SSW,199,12.0,24.0,79,0.00,,---,0.00,VWS V14.01,2013-11-29 16:11:00,
2013-11-29 08:12:00,30.4,24.7,30.30,SSW,201,12.0,24.0,79,0.00,,---,0.00,VWS V14.01,2013-11-29 16:12:00,
2013-11-29 08:13:00,30.4,24.7,30.30,SSW,192,20.0,20.0,79,0.00,,---,0.00,VWS V14.01,2013-11-29 16:13:00,
2013-11-29 08:14:00,30.4,24.4,30.30,SSW,198,16.0,22.0,78,0.00,,---,0.00,VWS V14.01,2013-11-29 16:14:00,
2013-11-29 08:15:00,30.4,24.4,30.29,SSW,207,13.0,22.0,78,0.00,,---,0.00,VWS V14.01,2013-11-29 16:15:00,
2013-11-29 08:16:00,30.4,24.4,30.30,SSW,195,11.0,22.0,78,0.00,,---,0.00,VWS V14.01,2013-11-29 16:16:00,
2013-11-29 08:17:00,30.4,24.7,30.30,SSW,204,14.0,22.0,79,0.00,,---,0.00,VWS V14.01,2013-11-29 16:17:00,
2013-11-29 08:18:00,30.4,24.7,30.30,SSW,204,16.0,22.0,79,0.00,,---,0.00,VWS V14.01,2013-11-29 16:18:00,
2013-11-29 08:19:00,30.4,24.4,30.30,SSW,207,19.0,22.0,78,0.00,,---,0.00,VWS V14.01,2013-11-29 16:19:00,
2013-11-29 08:20:00,30.4,24.4,30.30,SW,217,15.0,22.0,78,0.00,,---,0.00,VWS V14.01,2013-11-29 16:20:00,
2013-11-29 08:22:00,30.5,24.5,30.30,SSW,209,17.0,17.0,78,0.00,,---,0.00,VWS V14.01,2013-11-29 16:22:00,
2013-11-29 08:23:00,30.5,24.5,30.30,SW,226,16.0,18.0,78,0.00,,---,0.00,VWS V14.01,2013-11-29 16:23:00,
2013-11-29 08:24:00,30.5,24.5,30.30,SSW,199,16.0,21.0,78,0.00,,---,0.00,VWS V14.01,2013-11-29 16:24:00,
2013-11-29 08:25:00,30.5,24.5,30.30,SW,220,17.0,21.0,78,0.00,,---,0.00,VWS V14.01,2013-11-29 16:25:00,
2013-11-29 08:26:00,30.5,24.5,30.30,WSW,240,21.0,21.0,78,0.00,,---,0.00,VWS V14.01,2013-11-29 16:26:00,
2013-11-29 08:28:00,30.6,24.6,30.30,SW,215,18.0,25.0,78,0.00,,---,0.00,VWS V14.01,2013-11-29 16:28:00,
2013-11-29 08:29:00,30.6,24.6,30.29,SW,217,12.0,25.0,78,0.00,,---,0.00,VWS V14.01,2013-11-29 16:29:00,
2013-11-29 08:31:00,30.7,24.7,30.30,WSW,239,19.0,25.0,78,0.00,,---,0.00,VWS V14.01,2013-11-29 16:31:00,
2013-11-29 08:32:00,30.7,24.7,30.29,SSW,213,21.0,25.0,78,0.00,,---,0.00,VWS V14.01,2013-11-29 16:32:00,
2013-11-29 08:34:00,30.8,24.8,30.29,SSW,197,12.0,24.0,78,0.00,,---,0.00,VWS V14.01,2013-11-29 16:34:00,
2013-11-29 08:35:00,30.9,24.9,30.29,SW,227,21.0,24.0,78,0.00,,---,0.00,VWS V14.01,2013-11-29 16:35:00,
2013-11-29 08:36:00,30.9,24.5,30.29,South,188,19.0,24.0,77,0.00,,---,0.00,VWS V14.01,2013-11-29 16:36:00,
2013-11-29 08:37:00,30.9,24.5,30.29,SW,221,15.0,24.0,77,0.00,,---,0.00,VWS V14.01,2013-11-29 16:37:00,
2013-11-29 08:38:00,30.9,24.5,30.29,SW,229,15.0,24.0,77,0.00,,---,0.00,VWS V14.01,2013-11-29 16:38:00,
2013-11-29 08:39:00,30.9,24.5,30.29,SW,231,11.0,24.0,77,0.00,,---,0.00,VWS V14.01,2013-11-29 16:39:00,
2013-11-29 08:41:00,31.0,24.6,30.29,South,189,15.0,24.0,77,0.00,,---,0.00,VWS V14.01,2013-11-29 16:41:00,
2013-11-29 08:43:00,31.0,24.6,30.29,South,189,15.0,22.0,77,0.00,,---,0.00,VWS V14.01,2013-11-29 16:43:00,
2013-11-29 08:44:00,31.1,24.8,30.29,SW,224,19.0,22.0,77,0.00,,---,0.00,VWS V14.01,2013-11-29 16:44:00,
2013-11-29 08:45:00,31.1,24.8,30.29,SW,218,16.0,22.0,77,0.00,,---,0.00,VWS V14.01,2013-11-29 16:45:00,
2013-11-29 08:46:00,31.2,24.8,30.29,SSW,196,11.0,22.0,77,0.00,,---,0.00,VWS V14.01,2013-11-29 16:46:00,
2013-11-29 08:47:00,31.2,24.8,30.29,SW,215,15.0,26.0,77,0.00,,---,0.00,VWS V14.01,2013-11-29 16:47:00,
2013-11-29 08:51:00,31.4,25.0,30.29,SSW,197,12.0,26.0,77,0.00,,---,0.00,VWS V14.01,2013-11-29 16:51:00,
2013-11-29 08:52:00,31.4,25.0,30.29,SSW,207,13.0,26.0,77,0.00,,---,0.00,VWS V14.01,2013-11-29 16:52:00,
2013-11-29 08:53:00,31.5,25.1,30.29,SSW,192,10.0,17.0,77,0.00,,---,0.00,VWS V14.01,2013-11-29 16:53:00,
2013-11-29 08:54:00,31.5,25.1,30.29,SW,216,16.0,17.0,77,0.00,,---,0.00,VWS V14.01,2013-11-29 16:54:00,
2013-11-29 08:57:00,31.6,25.2,30.30,SSW,195,12.0,19.0,77,0.00,,---,0.00,VWS V14.01,2013-11-29 16:57:00,
2013-11-29 08:59:00,31.7,25.3,30.30,SW,234,12.0,19.0,77,0.00,,---,0.00,VWS V14.01,2013-11-29 16:59:00,
2013-11-29 09:01:00,31.9,25.2,30.29,SW,234,16.0,22.0,76,0.00,,---,0.00,VWS V14.01,2013-11-29 17:01:00,
2013-11-29 09:03:00,31.9,25.2,30.30,SW,217,14.0,19.0,76,0.00,,---,0.00,VWS V14.01,2013-11-29 17:03:00,
2013-11-29 09:05:00,32.0,25.3,30.30,SSW,197,12.0,20.0,76,0.00,,---,0.00,VWS V14.01,2013-11-29 17:05:00,
2013-11-29 09:06:00,32.0,25.3,30.30,South,190,20.0,21.0,76,0.00,,---,0.00,VWS V14.01,2013-11-29 17:06:00,
2013-11-29 09:08:00,32.2,25.5,30.30,SSW,198,11.0,25.0,76,0.00,,---,0.00,VWS V14.01,2013-11-29 17:08:00,
2013-11-29 09:09:00,32.3,25.6,30.29,WSW,250,15.0,25.0,76,0.00,,---,0.00,VWS V14.01,2013-11-29 17:09:00,
2013-11-29 09:11:00,32.4,25.7,30.29,SW,219,11.0,25.0,76,0.00,,---,0.00,VWS V14.01,2013-11-29 17:11:00,
2013-11-29 09:13:00,32.7,26.0,30.29,SSW,206,10.0,19.0,76,0.00,,---,0.00,VWS V14.01,2013-11-29 17:13:00,
2013-11-29 09:14:00,32.8,25.8,30.29,SW,227,14.0,19.0,75,0.00,,---,0.00,VWS V14.01,2013-11-29 17:14:00,
2013-11-29 09:15:00,33.0,26.0,30.29,SSW,196,12.0,19.0,75,0.00,,---,0.00,VWS V14.01,2013-11-29 17:15:00,
2013-11-29 09:16:00,33.2,26.1,30.29,SSW,213,18.0,19.0,75,0.00,,---,0.00,VWS V14.01,2013-11-29 17:16:00,
2013-11-29 09:19:00,33.6,26.2,30.29,SW,226,15.0,19.0,74,0.00,,---,0.00,VWS V14.01,2013-11-29 17:19:00,
2013-11-29 09:21:00,34.0,26.3,30.29,SW,229,14.0,19.0,73,0.00,,---,0.00,VWS V14.01,2013-11-29 17:21:00,
2013-11-29 09:22:00,34.2,26.5,30.29,SSW,198,13.0,20.0,73,0.00,,---,0.00,VWS V14.01,2013-11-29 17:22:00,
2013-11-29 09:24:00,34.4,26.7,30.29,SW,225,19.0,22.0,73,0.00,,---,0.00,VWS V14.01,2013-11-29 17:24:00,
2013-11-29 09:25:00,34.5,26.4,30.29,SSW,198,8.0,22.0,72,0.00,,---,0.00,VWS V14.01,2013-11-29 17:25:00,
2013-11-29 09:26:00,34.6,26.5,30.29,SW,215,10.0,22.0,72,0.00,,---,0.00,VWS V14.01,2013-11-29 17:26:00,
2013-11-29 09:28:00,34.8,26.7,30.30,SSW,211,14.0,22.0,72,0.00,,---,0.00,VWS V14.01,2013-11-29 17:28:00,
2013-11-29 09:30:00,35.0,26.6,30.29,SSW,207,12.0,22.0,71,0.00,,---,0.00,VWS V14.01,2013-11-29 17:30:00,
2013-11-29 09:31:00,35.1,26.7,30.29,SSW,212,14.0,22.0,71,0.00,,---,0.00,VWS V14.01,2013-11-29 17:31:00,
2013-11-29 09:32:00,35.1,26.7,30.29,SSW,211,13.0,22.0,71,0.00,,---,0.00,VWS V14.01,2013-11-29 17:32:00,
2013-11-29 09:34:00,35.3,26.9,30.30,SSW,198,15.0,17.0,71,0.00,,---,0.00,VWS V14.01,2013-11-29 17:34:00,
2013-11-29 09:37:00,35.5,27.0,30.30,SW,230,12.0,20.0,71,0.00,,---,0.00,VWS V14.01,2013-11-29 17:37:00,
2013-11-29 09:38:00,35.5,26.7,30.30,SW,225,10.0,20.0,70,0.00,,---,0.00,VWS V14.01,2013-11-29 17:38:00,
2013-11-29 09:39:00,35.6,26.8,30.30,SSW,203,10.0,20.0,70,0.00,,---,0.00,VWS V14.01,2013-11-29 17:39:00,
2013-11-29 09:40:00,35.7,26.9,30.30,SW,218,8.0,20.0,70,0.00,,---,0.00,VWS V14.01,2013-11-29 17:40:00,
2013-11-29 09:42:00,35.9,27.1,30.30,SSW,196,10.0,20.0,70,0.00,,---,0.00,VWS V14.01,2013-11-29 17:42:00,
2013-11-29 09:43:00,36.0,27.2,30.30,SW,217,14.0,20.0,70,0.00,,---,0.00,VWS V14.01,2013-11-29 17:43:00,
2013-11-29 09:44:00,36.1,27.3,30.30,SSW,196,10.0,20.0,70,0.00,,---,0.00,VWS V14.01,2013-11-29 17:44:00,
2013-11-29 09:45:00,36.2,27.4,30.30,South,190,10.0,20.0,70,0.00,,---,0.00,VWS V14.01,2013-11-29 17:45:00,
2013-11-29 09:46:00,36.3,27.5,30.30,SW,232,20.0,23.0,70,0.00,,---,0.00,VWS V14.01,2013-11-29 17:46:00,
2013-11-29 09:47:00,36.5,27.3,30.30,SSW,207,11.0,23.0,69,0.00,,---,0.00,VWS V14.01,2013-11-29 17:47:00,
2013-11-29 09:48:00,36.6,27.4,30.30,SSW,201,13.0,23.0,69,0.00,,---,0.00,VWS V14.01,2013-11-29 17:48:00,
2013-11-29 09:49:00,36.7,27.5,30.30,SW,221,14.0,23.0,69,0.00,,---,0.00,VWS V14.01,2013-11-29 17:49:00,
2013-11-29 09:50:00,36.8,27.2,30.30,SSW,199,9.0,23.0,68,0.00,,---,0.00,VWS V14.01,2013-11-29 17:50:00,
2013-11-29 09:51:00,36.9,27.3,30.30,SSW,205,7.0,23.0,68,0.00,,---,0.00,VWS V14.01,2013-11-29 17:51:00,
2013-11-29 09:53:00,37.1,27.5,30.30,SW,215,11.0,12.0,68,0.00,,---,0.00,VWS V14.01,2013-11-29 17:53:00,
2013-11-29 09:54:00,37.2,27.6,30.30,SW,226,11.0,16.0,68,0.00,,---,0.00,VWS V14.01,2013-11-29 17:54:00,
2013-11-29 09:55:00,37.3,27.7,30.30,SSW,213,11.0,18.0,68,0.00,,---,0.00,VWS V14.01,2013-11-29 17:55:00,
2013-11-29 09:56:00,37.4,27.8,30.30,SSW,212,6.0,18.0,68,0.00,,---,0.00,VWS V14.01,2013-11-29 17:56:00,
2013-11-29 09:57:00,37.5,27.5,30.30,SW,222,11.0,19.0,67,0.00,,---,0.00,VWS V14.01,2013-11-29 17:57:00,
2013-11-29 09:58:00,37.7,27.8,30.30,SW,227,20.0,20.0,67,0.00,,---,0.00,VWS V14.01,2013-11-29 17:58:00,
2013-11-29 09:59:00,37.7,27.4,30.30,SW,221,16.0,20.0,66,0.00,,---,0.00,VWS V14.01,2013-11-29 17:59:00,
2013-11-29 10:00:00,37.7,27.8,30.30,SSW,212,10.0,20.0,67,0.00,,---,0.00,VWS V14.01,2013-11-29 18:00:00,
2013-11-29 10:02:00,37.8,27.5,30.30,SSW,213,15.0,19.0,66,0.00,,---,0.00,VWS V14.01,2013-11-29 18:02:00,
2013-11-29 10:03:00,37.9,27.6,30.30,SSW,210,13.0,21.0,66,0.00,,---,0.00,VWS V14.01,2013-11-29 18:03:00,
2013-11-29 10:04:00,38.0,27.7,30.30,SSW,198,9.0,21.0,66,0.00,,---,0.00,VWS V14.01,2013-11-29 18:04:00,
2013-11-29 10:06:00,38.1,27.8,30.30,SSW,197,10.0,21.0,66,0.00,,---,0.00,VWS V14.01,2013-11-29 18:06:00,
2013-11-29 10:08:00,38.4,28.0,30.30,South,180,8.0,21.0,66,0.00,,---,0.00,VWS V14.01,2013-11-29 18:08:00,
2013-11-29 10:10:00,38.7,28.0,30.30,SSW,213,10.0,21.0,65,0.00,,---,0.00,VWS V14.01,2013-11-29 18:10:00,
2013-11-29 10:11:00,38.7,28.0,30.30,South,188,14.0,21.0,65,0.00,,---,0.00,VWS V14.01,2013-11-29 18:11:00,
2013-11-29 10:12:00,38.7,27.6,30.30,SSW,198,15.0,21.0,64,0.00,,---,0.00,VWS V14.01,2013-11-29 18:12:00,
2013-11-29 10:13:00,38.8,27.7,30.30,SSE,165,15.0,17.0,64,0.00,,---,0.00,VWS V14.01,2013-11-29 18:13:00,
2013-11-29 10:15:00,38.8,27.7,30.30,SSW,213,8.0,20.0,64,0.00,,---,0.00,VWS V14.01,2013-11-29 18:15:00,
2013-11-29 10:16:00,38.8,27.7,30.30,SSW,199,18.0,20.0,64,0.00,,---,0.00,VWS V14.01,2013-11-29 18:16:00,
2013-11-29 10:17:00,38.8,27.7,30.30,SSW,194,13.0,20.0,64,0.00,,---,0.00,VWS V14.01,2013-11-29 18:17:00,
2013-11-29 10:20:00,38.7,27.6,30.30,SSW,193,10.0,20.0,64,0.00,,---,0.00,VWS V14.01,2013-11-29 18:20:00,
2013-11-29 10:21:00,38.8,27.7,30.30,SSW,209,9.0,20.0,64,0.00,,---,0.00,VWS V14.01,2013-11-29 18:21:00,
2013-11-29 10:23:00,38.8,27.7,30.30,SSW,211,12.0,18.0,64,0.00,,---,0.00,VWS V14.01,2013-11-29 18:23:00,
2013-11-29 10:24:00,39.0,27.9,30.30,SSW,212,10.0,18.0,64,0.00,,---,0.00,VWS V14.01,2013-11-29 18:24:00,
2013-11-29 10:25:00,39.0,27.9,30.30,SSW,199,11.0,18.0,64,0.00,,---,0.00,VWS V14.01,2013-11-29 18:25:00,
2013-11-29 10:26:00,39.2,28.1,30.30,SSW,204,11.0,18.0,64,0.00,,---,0.00,VWS V14.01,2013-11-29 18:26:00,
2013-11-29 10:27:00,39.3,27.8,30.30,South,188,13.0,18.0,63,0.00,,---,0.00,VWS V14.01,2013-11-29 18:27:00,
2013-11-29 10:30:00,39.5,28.0,30.30,SSW,202,17.0,19.0,63,0.00,,---,0.00,VWS V14.01,2013-11-29 18:30:00,
2013-11-29 10:31:00,39.6,28.1,30.30,South,183,14.0,19.0,63,0.00,,---,0.00,VWS V14.01,2013-11-29 18:31:00,
2013-11-29 10:32:00,39.6,28.1,30.30,SSW,205,14.0,14.0,63,0.00,,---,0.00,VWS V14.01,2013-11-29 18:32:00,
2013-11-29 10:35:00,39.6,28.1,30.30,SSW,198,17.0,22.0,63,0.00,,---,0.00,VWS V14.01,2013-11-29 18:35:00,
2013-11-29 10:36:00,39.6,27.7,30.30,SSW,194,17.0,22.0,62,0.00,,---,0.00,VWS V14.01,2013-11-29 18:36:00,
2013-11-29 10:37:00,39.6,27.7,30.30,SW,218,13.0,22.0,62,0.00,,---,0.00,VWS V14.01,2013-11-29 18:37:00,
2013-11-29 10:38:00,39.6,27.7,30.30,SSW,192,14.0,22.0,62,0.00,,---,0.00,VWS V14.01,2013-11-29 18:38:00,
2013-11-29 10:41:00,39.6,27.7,30.30,SSW,200,9.0,22.0,62,0.00,,---,0.00,VWS V14.01,2013-11-29 18:41:00,
2013-11-29 10:42:00,39.6,27.7,30.30,SSW,192,12.0,22.0,62,0.00,,---,0.00,VWS V14.01,2013-11-29 18:42:00,
2013-11-29 10:43:00,39.7,27.8,30.30,SSW,196,7.0,12.0,62,0.00,,---,0.00,VWS V14.01,2013-11-29 18:43:00,
2013-11-29 10:45:00,40.1,28.1,30.30,SSW,201,9.0,12.0,62,0.00,,---,0.00,VWS V14.01,2013-11-29 18:45:00,
2013-11-29 10:47:00,40.5,28.1,30.30,SW,216,7.0,12.0,61,0.00,,---,0.00,VWS V14.01,2013-11-29 18:47:00,
2013-11-29 10:48:00,40.6,28.2,30.30,SSW,207,8.0,12.0,61,0.00,,---,0.00,VWS V14.01,2013-11-29 18:48:00,
2013-11-29 10:50:00,40.9,28.1,30.30,SW,224,10.0,12.0,60,0.00,,---,0.00,VWS V14.01,2013-11-29 18:50:00,
2013-11-29 10:53:00,41.3,28.1,30.30,SSW,210,6.0,17.0,59,0.00,,---,0.00,VWS V14.01,2013-11-29 18:53:00,
2013-11-29 10:54:00,41.4,28.2,30.31,SSW,207,6.0,17.0,59,0.00,,---,0.00,VWS V14.01,2013-11-29 18:54:00,
2013-11-29 10:55:00,41.5,28.3,30.30,SW,217,17.0,18.0,59,0.00,,---,0.00,VWS V14.01,2013-11-29 18:55:00,
2013-11-29 10:58:00,41.6,28.4,30.30,SSW,192,8.0,18.0,59,0.00,,---,0.00,VWS V14.01,2013-11-29 18:58:00,
2013-11-29 10:59:00,41.7,28.4,30.30,SW,229,16.0,18.0,59,0.00,,---,0.00,VWS V14.01,2013-11-29 18:59:00,
2013-11-29 11:00:00,41.9,28.6,30.30,SW,225,8.0,18.0,59,0.00,,---,0.00,VWS V14.01,2013-11-29 19:00:00,
2013-11-29 11:02:00,42.0,28.3,30.30,WSW,237,9.0,19.0,58,0.00,,---,0.00,VWS V14.01,2013-11-29 19:02:00,
2013-11-29 11:03:00,42.0,28.3,30.30,SW,227,6.0,12.0,58,0.00,,---,0.00,VWS V14.01,2013-11-29 19:03:00,
2013-11-29 11:04:00,42.2,28.1,30.30,SW,229,12.0,13.0,57,0.00,,---,0.00,VWS V14.01,2013-11-29 19:04:00,
2013-11-29 11:05:00,42.2,28.1,30.30,SW,236,11.0,13.0,57,0.00,,---,0.00,VWS V14.01,2013-11-29 19:05:00,
2013-11-29 11:09:00,42.5,28.4,30.30,South,191,6.0,15.0,57,0.00,,---,0.00,VWS V14.01,2013-11-29 19:09:00,
2013-11-29 11:11:00,42.8,28.6,30.30,SW,215,7.0,15.0,57,0.00,,---,0.00,VWS V14.01,2013-11-29 19:11:00,
2013-11-29 11:12:00,43.1,28.5,30.30,South,188,7.0,15.0,56,0.00,,---,0.00,VWS V14.01,2013-11-29 19:12:00,
2013-11-29 11:13:00,43.2,28.6,30.30,SSW,194,8.0,13.0,56,0.00,,---,0.00,VWS V14.01,2013-11-29 19:13:00,
2013-11-29 11:15:00,43.2,28.1,30.30,South,190,11.0,17.0,55,0.00,,---,0.00,VWS V14.01,2013-11-29 19:15:00,
2013-11-29 11:16:00,43.3,28.2,30.30,SSW,195,16.0,18.0,55,0.00,,---,0.00,VWS V14.01,2013-11-29 19:16:00,
2013-11-29 11:17:00,43.1,28.0,30.30,SW,215,7.0,18.0,55,0.00,,---,0.00,VWS V14.01,2013-11-29 19:17:00,
2013-11-29 11:18:00,43.1,28.0,30.30,SSW,201,13.0,18.0,55,0.00,,---,0.00,VWS V14.01,2013-11-29 19:18:00,
2013-11-29 11:21:00,43.3,28.2,30.29,SSW,200,9.0,18.0,55,0.00,,---,0.00,VWS V14.01,2013-11-29 19:21:00,
2013-11-29 11:23:00,43.5,28.0,30.29,SSW,209,9.0,14.0,54,0.00,,---,0.00,VWS V14.01,2013-11-29 19:23:00,
2013-11-29 11:24:00,43.5,27.5,30.29,SW,215,7.0,15.0,53,0.00,,---,0.00,VWS V14.01,2013-11-29 19:24:00,
2013-11-29 11:25:00,43.6,28.1,30.29,SSW,212,9.0,15.0,54,0.00,,---,0.00,VWS V14.01,2013-11-29 19:25:00,
2013-11-29 11:28:00,43.7,27.7,30.30,SSW,205,13.0,15.0,53,0.00,,---,0.00,VWS V14.01,2013-11-29 19:28:00,
2013-11-29 11:29:00,43.8,27.3,30.29,SW,224,9.0,15.0,52,0.00,,---,0.00,VWS V14.01,2013-11-29 19:29:00,
2013-11-29 11:30:00,43.9,27.4,30.29,SSW,211,17.0,17.0,52,0.00,,---,0.00,VWS V14.01,2013-11-29 19:30:00,
2013-11-29 11:32:00,44.0,27.5,30.29,SSW,208,11.0,11.0,52,0.00,,---,0.00,VWS V14.01,2013-11-29 19:32:00,
2013-11-29 11:33:00,44.1,27.1,30.29,SSW,213,7.0,18.0,51,0.00,,---,0.00,VWS V14.01,2013-11-29 19:33:00,
2013-11-29 11:34:00,44.2,27.2,30.29,SSW,207,12.0,18.0,51,0.00,,---,0.00,VWS V14.01,2013-11-29 19:34:00,
2013-11-29 11:36:00,44.5,27.5,30.29,SSW,212,9.0,18.0,51,0.00,,---,0.00,VWS V14.01,2013-11-29 19:36:00,
2013-11-29 11:38:00,44.7,27.7,30.29,SW,218,10.0,18.0,51,0.00,,---,0.00,VWS V14.01,2013-11-29 19:38:00,
2013-11-29 11:39:00,44.8,27.3,30.29,SSW,206,12.0,18.0,50,0.00,,---,0.00,VWS V14.01,2013-11-29 19:39:00,
2013-11-29 11:41:00,45.0,27.5,30.29,South,172,10.0,18.0,50,0.00,,---,0.00,VWS V14.01,2013-11-29 19:41:00,
2013-11-29 11:42:00,45.2,27.2,30.29,SW,225,11.0,15.0,49,0.00,,---,0.00,VWS V14.01,2013-11-29 19:42:00,
2013-11-29 11:43:00,45.2,27.2,30.29,SW,220,9.0,15.0,49,0.00,,---,0.00,VWS V14.01,2013-11-29 19:43:00,
2013-11-29 11:44:00,45.3,27.3,30.29,South,188,10.0,15.0,49,0.00,,---,0.00,VWS V14.01,2013-11-29 19:44:00,
2013-11-29 11:45:00,45.5,27.5,30.29,SW,215,7.0,15.0,49,0.00,,---,0.00,VWS V14.01,2013-11-29 19:45:00,
2013-11-29 11:48:00,45.8,27.2,30.29,SW,228,10.0,15.0,48,0.00,,---,0.00,VWS V14.01,2013-11-29 19:48:00,
2013-11-29 11:50:00,46.0,27.4,30.29,SSW,211,11.0,15.0,48,0.00,,---,0.00,VWS V14.01,2013-11-29 19:50:00,
2013-11-29 11:51:00,46.1,27.5,30.29,SW,229,5.0,15.0,48,0.00,,---,0.00,VWS V14.01,2013-11-29 19:51:00,
2013-11-29 11:53:00,46.4,27.3,30.29,SSW,194,8.0,13.0,47,0.00,,---,0.00,VWS V14.01,2013-11-29 19:53:00,
2013-11-29 11:55:00,46.4,27.3,30.29,WSW,247,7.0,13.0,47,0.00,,---,0.00,VWS V14.01,2013-11-29 19:55:00,
2013-11-29 11:56:00,46.6,27.5,30.29,SW,217,8.0,13.0,47,0.00,,---,0.00,VWS V14.01,2013-11-29 19:56:00,
2013-11-29 11:57:00,46.8,27.6,30.29,SW,231,4.0,13.0,47,0.00,,---,0.00,VWS V14.01,2013-11-29 19:57:00,
2013-11-29 11:58:00,46.9,27.7,30.29,SW,220,4.0,13.0,47,0.00,,---,0.00,VWS V14.01,2013-11-29 19:58:00,
2013-11-29 12:00:00,47.2,27.5,30.29,SW,216,11.0,13.0,46,0.00,,---,0.00,VWS V14.01,2013-11-29 20:00:00,
2013-11-29 12:01:00,47.4,27.7,30.29,SSW,211,8.0,13.0,46,0.00,,---,0.00,VWS V14.01,2013-11-29 20:01:00,
2013-11-29 12:02:00,47.4,27.7,30.29,SW,225,9.0,10.0,46,0.00,,---,0.00,VWS V14.01,2013-11-29 20:02:00,
2013-11-29 12:03:00,47.5,27.8,30.29,SW,220,7.0,10.0,46,0.00,,---,0.00,VWS V14.01,2013-11-29 20:03:00,
2013-11-29 12:05:00,47.8,27.5,30.29,SW,215,9.0,12.0,45,0.00,,---,0.00,VWS V14.01,2013-11-29 20:05:00,
2013-11-29 12:06:00,47.9,27.0,30.29,SW,216,9.0,13.0,44,0.00,,---,0.00,VWS V14.01,2013-11-29 20:06:00,
2013-11-29 12:07:00,47.9,27.0,30.28,South,181,10.0,16.0,44,0.00,,---,0.00,VWS V14.01,2013-11-29 20:07:00,
2013-11-29 12:08:00,47.9,27.0,30.28,SSW,210,7.0,16.0,44,0.00,,---,0.00,VWS V14.01,2013-11-29 20:08:00,
2013-11-29 12:10:00,48.1,27.2,30.28,WSW,240,8.0,16.0,44,0.00,,---,0.00,VWS V14.01,2013-11-29 20:10:00,
2013-11-29 12:11:00,48.2,26.8,30.28,SW,226,11.0,16.0,43,0.00,,---,0.00,VWS V14.01,2013-11-29 20:11:00,
2013-11-29 12:12:00,48.3,26.9,30.28,SW,229,7.0,10.0,43,0.00,,---,0.00,VWS V14.01,2013-11-29 20:12:00,
2013-11-29 12:14:00,48.4,27.0,30.28,WSW,255,11.0,12.0,43,0.00,,---,0.00,VWS V14.01,2013-11-29 20:14:00,
2013-11-29 12:16:00,48.5,26.5,30.28,SSW,202,10.0,14.0,42,0.00,,---,0.00,VWS V14.01,2013-11-29 20:16:00,
2013-11-29 12:18:00,48.6,26.6,30.28,SSW,204,9.0,15.0,42,0.00,,---,0.00,VWS V14.01,2013-11-29 20:18:00,
2013-11-29 12:19:00,48.5,26.5,30.28,SSW,198,6.0,15.0,42,0.00,,---,0.00,VWS V14.01,2013-11-29 20:19:00,
2013-11-29 12:21:00,48.9,26.8,30.28,SSW,207,4.0,15.0,42,0.00,,---,0.00,VWS V14.01,2013-11-29 20:21:00,
2013-11-29 12:24:00,49.2,26.5,30.28,SW,217,8.0,13.0,41,0.00,,---,0.00,VWS V14.01,2013-11-29 20:24:00,
2013-11-29 12:25:00,49.4,26.7,30.28,SW,229,8.0,13.0,41,0.00,,---,0.00,VWS V14.01,2013-11-29 20:25:00,
2013-11-29 12:26:00,49.5,26.8,30.28,West,262,4.0,13.0,41,0.00,,---,0.00,VWS V14.01,2013-11-29 20:26:00,
2013-11-29 12:28:00,49.7,27.0,30.28,South,188,4.0,13.0,41,0.00,,---,0.00,VWS V14.01,2013-11-29 20:28:00,
2013-11-29 12:29:00,49.9,27.1,30.28,SW,229,5.0,13.0,41,0.00,,---,0.00,VWS V14.01,2013-11-29 20:29:00,
2013-11-29 12:30:00,50.1,26.1,30.27,SSW,193,7.0,13.0,39,0.00,,---,0.00,VWS V14.01,2013-11-29 20:30:00,
2013-11-29 12:31:00,50.2,26.2,30.27,SW,215,8.0,13.0,39,0.00,,---,0.00,VWS V14.01,2013-11-29 20:31:00,
2013-11-29 12:32:00,50.3,26.3,30.27,SW,235,10.0,13.0,39,0.00,,---,0.00,VWS V14.01,2013-11-29 20:32:00,
2013-11-29 12:34:00,50.5,26.5,30.27,SW,229,7.0,12.0,39,0.00,,---,0.00,VWS V14.01,2013-11-29 20:34:00,
2013-11-29 12:36:00,50.6,26.0,30.27,SW,234,7.0,13.0,38,0.00,,---,0.00,VWS V14.01,2013-11-29 20:36:00,
2013-11-29 12:40:00,51.0,26.3,30.27,SW,215,8.0,13.0,38,0.00,,---,0.00,VWS V14.01,2013-11-29 20:40:00,
2013-11-29 12:41:00,51.1,26.4,30.27,SSW,204,10.0,13.0,38,0.00,,---,0.00,VWS V14.01,2013-11-29 20:41:00,
2013-11-29 12:42:00,51.2,26.5,30.27,SW,228,7.0,13.0,38,0.00,,---,0.00,VWS V14.01,2013-11-29 20:42:00,
2013-11-29 12:44:00,51.1,25.8,30.27,SW,231,7.0,12.0,37,0.00,,---,0.00,VWS V14.01,2013-11-29 20:44:00,
2013-11-29 12:46:00,51.3,26.6,30.27,South,184,4.0,12.0,38,0.00,,---,0.00,VWS V14.01,2013-11-29 20:46:00,
2013-11-29 12:48:00,51.5,26.1,30.27,SW,225,10.0,12.0,37,0.00,,---,0.00,VWS V14.01,2013-11-29 20:48:00,
2013-11-29 12:50:00,51.8,26.4,30.26,WSW,246,3.0,12.0,37,0.00,,---,0.00,VWS V14.01,2013-11-29 20:50:00,
2013-11-29 12:51:00,52.0,25.9,30.26,SSW,200,7.0,12.0,36,0.00,,---,0.00,VWS V14.01,2013-11-29 20:51:00,
2013-11-29 12:52:00,52.0,25.9,30.26,SSW,204,7.0,12.0,36,0.00,,---,0.00,VWS V14.01,2013-11-29 20:52:00,
2013-11-29 12:56:00,52.2,26.1,30.26,SW,235,3.0,11.0,36,0.00,,---,0.00,VWS V14.01,2013-11-29 20:56:00,
2013-11-29 12:57:00,52.3,26.2,30.26,SSW,192,7.0,11.0,36,0.00,,---,0.00,VWS V14.01,2013-11-29 20:57:00,
2013-11-29 12:58:00,52.4,26.2,30.26,SSW,194,4.0,11.0,36,0.00,,---,0.00,VWS V14.01,2013-11-29 20:58:00,
2013-11-29 12:59:00,52.4,26.2,30.26,SSW,193,8.0,11.0,36,0.00,,---,0.00,VWS V14.01,2013-11-29 20:59:00,
2013-11-29 13:02:00,52.5,25.7,30.26,South,171,5.0,13.0,35,0.00,,---,0.00,VWS V14.01,2013-11-29 21:02:00,
2013-11-29 13:04:00,52.5,25.7,30.26,South,191,5.0,10.0,35,0.00,,---,0.00,VWS V14.01,2013-11-29 21:04:00,
2013-11-29 13:05:00,52.6,25.0,30.25,South,182,11.0,13.0,34,0.00,,---,0.00,VWS V14.01,2013-11-29 21:05:00,
2013-11-29 13:06:00,52.5,25.0,30.25,SW,219,6.0,14.0,34,0.00,,---,0.00,VWS V14.01,2013-11-29 21:06:00,
2013-11-29 13:07:00,52.5,25.7,30.25,SW,223,6.0,14.0,35,0.00,,---,0.00,VWS V14.01,2013-11-29 21:07:00,
2013-11-29 13:10:00,52.6,25.8,30.25,SSE,155,3.0,14.0,35,0.00,,---,0.00,VWS V14.01,2013-11-29 21:10:00,
2013-11-29 13:11:00,52.6,25.0,30.25,SW,233,6.0,14.0,34,0.00,,---,0.00,VWS V14.01,2013-11-29 21:11:00,
2013-11-29 13:12:00,52.6,25.0,30.25,SSW,205,11.0,11.0,34,0.00,,---,0.00,VWS V14.01,2013-11-29 21:12:00,
2013-11-29 13:13:00,52.5,25.0,30.25,South,188,8.0,11.0,34,0.00,,---,0.00,VWS V14.01,2013-11-29 21:13:00,
2013-11-29 13:14:00,52.4,25.6,30.25,SW,225,3.0,11.0,35,0.00,,---,0.00,VWS V14.01,2013-11-29 21:14:00,
2013-11-29 13:16:00,52.4,25.6,30.25,SSW,211,8.0,11.0,35,0.00,,---,0.00,VWS V14.01,2013-11-29 21:16:00,
2013-11-29 13:18:00,52.4,25.6,30.25,SW,215,8.0,11.0,35,0.00,,---,0.00,VWS V14.01,2013-11-29 21:18:00,
2013-11-29 13:19:00,52.4,25.6,30.25,SSW,205,6.0,11.0,35,0.00,,---,0.00,VWS V14.01,2013-11-29 21:19:00,
2013-11-29 13:22:00,52.3,25.5,30.25,SSW,200,3.0,3.0,35,0.00,,---,0.00,VWS V14.01,2013-11-29 21:22:00,
2013-11-29 13:24:00,52.4,25.6,30.25,SSW,200,3.0,6.0,35,0.00,,---,0.00,VWS V14.01,2013-11-29 21:24:00,
2013-11-29 13:25:00,52.4,25.6,30.25,WSW,243,5.0,7.0,35,0.00,,---,0.00,VWS V14.01,2013-11-29 21:25:00,
2013-11-29 13:28:00,52.4,25.6,30.25,South,180,7.0,7.0,35,0.00,,---,0.00,VWS V14.01,2013-11-29 21:28:00,
2013-11-29 13:30:00,52.3,25.5,30.25,SW,219,5.0,7.0,35,0.00,,---,0.00,VWS V14.01,2013-11-29 21:30:00,
2013-11-29 13:31:00,52.3,25.5,30.25,SW,234,5.0,7.0,35,0.00,,---,0.00,VWS V14.01,2013-11-29 21:31:00,
2013-11-29 13:32:00,52.3,25.5,30.25,SSW,203,2.0,7.0,35,0.00,,---,0.00,VWS V14.01,2013-11-29 21:32:00,
2013-11-29 13:33:00,52.3,25.5,30.25,SSW,203,0.0,2.0,35,0.00,,---,0.00,VWS V14.01,2013-11-29 21:33:00,
2013-11-29 13:34:00,52.3,25.5,30.25,SSW,203,4.0,4.0,35,0.00,,---,0.00,VWS V14.01,2013-11-29 21:34:00,
2013-11-29 13:36:00,52.5,25.7,30.25,SSW,203,2.0,4.0,35,0.00,,---,0.00,VWS V14.01,2013-11-29 21:36:00,
2013-11-29 13:37:00,52.6,25.8,30.25,SSW,203,1.0,4.0,35,0.00,,---,0.00,VWS V14.01,2013-11-29 21:37:00,
2013-11-29 13:38:00,52.6,25.8,30.25,SSW,203,1.0,4.0,35,0.00,,---,0.00,VWS V14.01,2013-11-29 21:38:00,
2013-11-29 13:39:00,52.7,25.8,30.25,SSW,203,1.0,4.0,35,0.00,,---,0.00,VWS V14.01,2013-11-29 21:39:00,
2013-11-29 13:41:00,53.0,26.1,30.25,SSW,203,2.0,4.0,35,0.00,,---,0.00,VWS V14.01,2013-11-29 21:41:00,
2013-11-29 13:42:00,53.0,26.1,30.25,SSW,203,3.0,4.0,35,0.00,,---,0.00,VWS V14.01,2013-11-29 21:42:00,
2013-11-29 13:43:00,53.2,25.6,30.25,SSW,203,2.0,3.0,34,0.00,,---,0.00,VWS V14.01,2013-11-29 21:43:00,
2013-11-29 13:44:00,53.3,25.7,30.25,SSW,203,1.0,3.0,34,0.00,,---,0.00,VWS V14.01,2013-11-29 21:44:00,
2013-11-29 13:47:00,53.7,26.0,30.25,SSW,203,2.0,5.0,34,0.00,,---,0.00,VWS V14.01,2013-11-29 21:47:00,
2013-11-29 13:48:00,53.7,26.0,30.25,SSW,203,4.0,5.0,34,0.00,,---,0.00,VWS V14.01,2013-11-29 21:48:00,
2013-11-29 13:49:00,53.7,26.0,30.25,SSW,203,4.0,5.0,34,0.00,,---,0.00,VWS V14.01,2013-11-29 21:49:00,
2013-11-29 13:50:00,53.7,26.0,30.25,SSW,203,3.0,5.0,34,0.00,,---,0.00,VWS V14.01,2013-11-29 21:50:00,
2013-11-29 13:54:00,54.1,25.6,30.25,South,177,3.0,5.0,33,0.00,,---,0.00,VWS V14.01,2013-11-29 21:54:00,
2013-11-29 13:56:00,54.3,25.8,30.24,South,177,3.0,5.0,33,0.00,,---,0.00,VWS V14.01,2013-11-29 21:56:00,
2013-11-29 13:57:00,54.2,25.7,30.24,SSE,161,4.0,6.0,33,0.00,,---,0.00,VWS V14.01,2013-11-29 21:57:00,
2013-11-29 13:58:00,54.2,25.7,30.24,SSE,161,2.0,6.0,33,0.00,,---,0.00,VWS V14.01,2013-11-29 21:58:00,
2013-11-29 13:59:00,54.1,26.4,30.25,SSE,161,1.0,6.0,34,0.00,,---,0.00,VWS V14.01,2013-11-29 21:59:00,
2013-11-29 14:01:00,54.1,26.4,30.24,SSE,162,1.0,6.0,34,0.00,,---,0.00,VWS V14.01,2013-11-29 22:01:00,
2013-11-29 14:02:00,54.1,26.4,30.24,SSE,162,4.0,6.0,34,0.00,,---,0.00,VWS V14.01,2013-11-29 22:02:00,
2013-11-29 14:03:00,54.2,26.5,30.24,SSE,162,2.0,4.0,34,0.00,,---,0.00,VWS V14.01,2013-11-29 22:03:00,
2013-11-29 14:06:00,54.4,26.6,30.24,SSE,162,1.0,4.0,34,0.00,,---,0.00,VWS V14.01,2013-11-29 22:06:00,
2013-11-29 14:07:00,54.4,26.6,30.24,SSE,162,1.0,4.0,34,0.00,,---,0.00,VWS V14.01,2013-11-29 22:07:00,
2013-11-29 14:08:00,54.5,26.7,30.25,SSE,162,1.0,4.0,34,0.00,,---,0.00,VWS V14.01,2013-11-29 22:08:00,
2013-11-29 14:10:00,54.5,26.7,30.25,SSE,162,2.0,4.0,34,0.00,,---,0.00,VWS V14.01,2013-11-29 22:10:00,
2013-11-29 14:11:00,54.6,26.8,30.25,SSE,162,2.0,4.0,34,0.00,,---,0.00,VWS V14.01,2013-11-29 22:11:00,
2013-11-29 14:12:00,54.6,26.1,30.25,SSE,162,4.0,4.0,33,0.00,,---,0.00,VWS V14.01,2013-11-29 22:12:00,
2013-11-29 14:13:00,54.6,26.1,30.25,SSE,162,4.0,4.0,33,0.00,,---,0.00,VWS V14.01,2013-11-29 22:13:00,
2013-11-29 14:15:00,54.5,26.0,30.25,SSE,162,2.0,4.0,33,0.00,,---,0.00,VWS V14.01,2013-11-29 22:15:00,
2013-11-29 14:16:00,54.5,26.0,30.25,SSE,162,1.0,4.0,33,0.00,,---,0.00,VWS V14.01,2013-11-29 22:16:00,
2013-11-29 14:17:00,54.4,25.9,30.25,SSE,162,1.0,4.0,33,0.00,,---,0.00,VWS V14.01,2013-11-29 22:17:00,
2013-11-29 14:19:00,54.4,25.9,30.25,SSE,162,1.0,4.0,33,0.00,,---,0.00,VWS V14.01,2013-11-29 22:19:00,
2013-11-29 14:21:00,54.4,25.9,30.25,SSE,162,0.0,4.0,33,0.00,,---,0.00,VWS V14.01,2013-11-29 22:21:00,
2013-11-29 14:22:00,54.4,25.9,30.25,SSE,162,0.0,1.0,33,0.00,,---,0.00,VWS V14.01,2013-11-29 22:22:00,
2013-11-29 14:23:00,54.5,26.0,30.25,SSE,162,1.0,1.0,33,0.00,,---,0.00,VWS V14.01,2013-11-29 22:23:00,
2013-11-29 14:24:00,54.4,25.9,30.25,SSE,162,1.0,2.0,33,0.00,,---,0.00,VWS V14.01,2013-11-29 22:24:00,
2013-11-29 14:25:00,54.4,25.9,30.25,SSE,162,0.0,2.0,33,0.00,,---,0.00,VWS V14.01,2013-11-29 22:25:00,
2013-11-29 14:28:00,54.5,26.0,30.25,SSE,162,0.0,2.0,33,0.00,,---,0.00,VWS V14.01,2013-11-29 22:28:00,
2013-11-29 14:29:00,54.6,26.1,30.25,SSE,162,0.0,2.0,33,0.00,,---,0.00,VWS V14.01,2013-11-29 22:29:00,
2013-11-29 14:31:00,54.7,26.2,30.25,SSE,162,1.0,2.0,33,0.00,,---,0.00,VWS V14.01,2013-11-29 22:31:00,
2013-11-29 14:32:00,54.7,26.2,30.25,SSE,162,1.0,2.0,33,0.00,,---,0.00,VWS V14.01,2013-11-29 22:32:00,
2013-11-29 14:33:00,54.8,26.3,30.25,SSE,162,1.0,2.0,33,0.00,,---,0.00,VWS V14.01,2013-11-29 22:33:00,
2013-11-29 14:34:00,54.8,26.3,30.25,SSE,162,1.0,2.0,33,0.00,,---,0.00,VWS V14.01,2013-11-29 22:34:00,
2013-11-29 14:36:00,54.8,26.3,30.25,SSE,162,2.0,4.0,33,0.00,,---,0.00,VWS V14.01,2013-11-29 22:36:00,
2013-11-29 14:38:00,54.7,26.2,30.25,SSE,162,1.0,4.0,33,0.00,,---,0.00,VWS V14.01,2013-11-29 22:38:00,
2013-11-29 14:39:00,54.7,26.2,30.25,SSE,162,2.0,4.0,33,0.00,,---,0.00,VWS V14.01,2013-11-29 22:39:00,
2013-11-29 14:41:00,54.7,26.2,30.25,SSE,162,4.0,4.0,33,0.00,,---,0.00,VWS V14.01,2013-11-29 22:41:00,
2013-11-29 14:42:00,54.6,26.1,30.25,SSE,162,2.0,2.0,33,0.00,,---,0.00,VWS V14.01,2013-11-29 22:42:00,
2013-11-29 14:44:00,54.6,26.1,30.25,SSE,162,0.0,2.0,33,0.00,,---,0.00,VWS V14.01,2013-11-29 22:44:00,
2013-11-29 14:46:00,54.6,26.1,30.25,SSE,162,1.0,2.0,33,0.00,,---,0.00,VWS V14.01,2013-11-29 22:46:00,
2013-11-29 14:47:00,54.6,26.1,30.25,SSE,162,2.0,4.0,33,0.00,,---,0.00,VWS V14.01,2013-11-29 22:47:00,
2013-11-29 14:49:00,54.5,26.0,30.24,SSE,162,4.0,5.0,33,0.00,,---,0.00,VWS V14.01,2013-11-29 22:49:00,
2013-11-29 14:51:00,54.4,25.9,30.24,SSE,162,5.0,6.0,33,0.00,,---,0.00,VWS V14.01,2013-11-29 22:51:00,
2013-11-29 14:53:00,54.2,26.5,30.24,SSE,161,1.0,5.0,34,0.00,,---,0.00,VWS V14.01,2013-11-29 22:53:00,
2013-11-29 14:54:00,54.2,26.5,30.24,SSE,162,1.0,5.0,34,0.00,,---,0.00,VWS V14.01,2013-11-29 22:54:00,
2013-11-29 14:55:00,54.1,26.4,30.24,SSE,162,0.0,5.0,34,0.00,,---,0.00,VWS V14.01,2013-11-29 22:55:00,
2013-11-29 14:57:00,54.2,26.5,30.24,SSE,162,1.0,5.0,34,0.00,,---,0.00,VWS V14.01,2013-11-29 22:57:00,
2013-11-29 14:58:00,54.2,26.5,30.25,SSE,162,0.0,5.0,34,0.00,,---,0.00,VWS V14.01,2013-11-29 22:58:00,
2013-11-29 14:59:00,54.2,26.5,30.25,SSE,162,0.0,5.0,34,0.00,,---,0.00,VWS V14.01,2013-11-29 22:59:00,
2013-11-29 15:02:00,54.2,26.5,30.25,SSE,162,0.0,5.0,34,0.00,,---,0.00,VWS V14.01,2013-11-29 23:02:00,
2013-11-29 15:03:00,54.2,26.5,30.25,SSE,162,0.0,0.0,34,0.00,,---,0.00,VWS V14.01,2013-11-29 23:03:00,
2013-11-29 15:04:00,54.2,26.5,30.25,SSE,162,0.0,0.0,34,0.00,,---,0.00,VWS V14.01,2013-11-29 23:04:00,
2013-11-29 15:06:00,54.2,26.5,30.25,SSE,162,0.0,0.0,34,0.00,,---,0.00,VWS V14.01,2013-11-29 23:06:00,
2013-11-29 15:07:00,54.2,26.5,30.25,SSE,162,0.0,0.0,34,0.00,,---,0.00,VWS V14.01,2013-11-29 23:07:00,
2013-11-29 15:08:00,54.2,26.5,30.25,SSE,162,0.0,0.0,34,0.00,,---,0.00,VWS V14.01,2013-11-29 23:08:00,
2013-11-29 15:09:00,54.2,26.5,30.25,SSE,162,0.0,0.0,34,0.00,,---,0.00,VWS V14.01,2013-11-29 23:09:00,
2013-11-29 15:12:00,54.2,26.5,30.25,SSE,162,0.0,1.0,34,0.00,,---,0.00,VWS V14.01,2013-11-29 23:12:00,
2013-11-29 15:13:00,54.2,26.5,30.25,SSE,162,2.0,2.0,34,0.00,,---,0.00,VWS V14.01,2013-11-29 23:13:00,
2013-11-29 15:14:00,54.2,26.5,30.25,SSE,162,1.0,2.0,34,0.00,,---,0.00,VWS V14.01,2013-11-29 23:14:00,
2013-11-29 15:15:00,54.2,26.5,30.25,SSE,162,1.0,2.0,34,0.00,,---,0.00,VWS V14.01,2013-11-29 23:15:00,
2013-11-29 15:16:00,54.2,26.5,30.25,SSE,162,1.0,2.0,34,0.00,,---,0.00,VWS V14.01,2013-11-29 23:16:00,
2013-11-29 15:18:00,54.1,26.4,30.25,SSE,162,2.0,2.0,34,0.00,,---,0.00,VWS V14.01,2013-11-29 23:18:00,
2013-11-29 15:19:00,54.1,26.4,30.25,SSE,162,2.0,2.0,34,0.00,,---,0.00,VWS V14.01,2013-11-29 23:19:00,
2013-11-29 15:20:00,54.0,26.3,30.25,SSE,162,1.0,2.0,34,0.00,,---,0.00,VWS V14.01,2013-11-29 23:20:00,
2013-11-29 15:22:00,54.0,26.3,30.25,SSE,162,2.0,2.0,34,0.00,,---,0.00,VWS V14.01,2013-11-29 23:22:00,
2013-11-29 15:24:00,53.9,26.2,30.25,SSE,162,1.0,2.0,34,0.00,,---,0.00,VWS V14.01,2013-11-29 23:24:00,
2013-11-29 15:26:00,53.8,26.1,30.25,SSE,162,1.0,2.0,34,0.00,,---,0.00,VWS V14.01,2013-11-29 23:26:00,
2013-11-29 15:27:00,53.8,26.1,30.25,SSE,162,1.0,2.0,34,0.00,,---,0.00,VWS V14.01,2013-11-29 23:27:00,
2013-11-29 15:28:00,53.8,26.1,30.25,SSE,162,1.0,2.0,34,0.00,,---,0.00,VWS V14.01,2013-11-29 23:28:00,
2013-11-29 15:29:00,53.8,26.8,30.25,SSE,162,1.0,2.0,35,0.00,,---,0.00,VWS V14.01,2013-11-29 23:29:00,
2013-11-29 15:33:00,53.7,26.7,30.25,SSE,162,1.0,2.0,35,0.00,,---,0.00,VWS V14.01,2013-11-29 23:33:00,
2013-11-29 15:34:00,53.6,26.6,30.25,SSE,162,2.0,2.0,35,0.00,,---,0.00,VWS V14.01,2013-11-29 23:34:00,
2013-11-29 15:35:00,53.6,26.6,30.25,SSE,162,2.0,2.0,35,0.00,,---,0.00,VWS V14.01,2013-11-29 23:35:00,
2013-11-29 15:37:00,53.5,26.5,30.25,SSE,162,2.0,2.0,35,0.00,,---,0.00,VWS V14.01,2013-11-29 23:37:00,
2013-11-29 15:38:00,53.5,26.5,30.25,SSE,162,2.0,2.0,35,0.00,,---,0.00,VWS V14.01,2013-11-29 23:38:00,
2013-11-29 15:39:00,53.5,26.5,30.25,SSE,162,2.0,2.0,35,0.00,,---,0.00,VWS V14.01,2013-11-29 23:39:00,
2013-11-29 15:40:00,53.4,26.5,30.25,SSE,162,2.0,4.0,35,0.00,,---,0.00,VWS V14.01,2013-11-29 23:40:00,
2013-11-29 15:44:00,53.2,26.3,30.25,SSE,162,1.0,2.0,35,0.00,,---,0.00,VWS V14.01,2013-11-29 23:44:00,
2013-11-29 15:45:00,53.2,26.3,30.25,SSE,162,2.0,2.0,35,0.00,,---,0.00,VWS V14.01,2013-11-29 23:45:00,
2013-11-29 15:46:00,53.2,26.3,30.25,SSE,162,2.0,2.0,35,0.00,,---,0.00,VWS V14.01,2013-11-29 23:46:00,
2013-11-29 15:49:00,53.1,26.9,30.25,East,90,3.0,4.0,36,0.00,,---,0.00,VWS V14.01,2013-11-29 23:49:00,
2013-11-29 15:51:00,53.1,26.2,30.25,East,90,3.0,4.0,35,0.00,,---,0.00,VWS V14.01,2013-11-29 23:51:00,
2013-11-29 15:52:00,53.1,26.9,30.25,East,90,3.0,4.0,36,0.00,,---,0.00,VWS V14.01,2013-11-29 23:52:00,
2013-11-29 15:53:00,53.0,26.8,30.25,East,90,3.0,4.0,36,0.00,,---,0.00,VWS V14.01,2013-11-29 23:53:00,
2013-11-29 15:56:00,52.9,26.7,30.25,East,90,3.0,4.0,36,0.00,,---,0.00,VWS V14.01,2013-11-29 23:56:00,
2013-11-29 15:57:00,52.9,26.7,30.25,East,90,3.0,4.0,36,0.00,,---,0.00,VWS V14.01,2013-11-29 23:57:00,
2013-11-29 15:58:00,52.9,26.7,30.25,East,90,2.0,4.0,36,0.00,,---,0.00,VWS V14.01,2013-11-29 23:58:00,
2013-11-29 15:59:00,52.8,26.6,30.25,East,90,3.0,4.0,36,0.00,,---,0.00,VWS V14.01,2013-11-29 23:59:00,
2013-11-29 16:01:00,52.8,26.6,30.25,East,90,3.0,4.0,36,0.00,,---,0.00,VWS V14.01,2013-11-30 00:01:00,
2013-11-29 16:02:00,52.8,26.6,30.25,East,90,3.0,4.0,36,0.00,,---,0.00,VWS V14.01,2013-11-30 00:02:00,
2013-11-29 16:03:00,52.8,26.6,30.25,East,90,3.0,3.0,36,0.00,,---,0.00,VWS V14.01,2013-11-30 00:03:00,
2013-11-29 16:05:00,52.7,26.5,30.25,East,90,3.0,4.0,36,0.00,,---,0.00,VWS V14.01,2013-11-30 00:05:00,
2013-11-29 16:06:00,52.7,26.5,30.25,East,90,2.0,4.0,36,0.00,,---,0.00,VWS V14.01,2013-11-30 00:06:00,
2013-11-29 16:08:00,52.6,26.4,30.25,East,90,3.0,4.0,36,0.00,,---,0.00,VWS V14.01,2013-11-30 00:08:00,
2013-11-29 16:10:00,52.5,26.3,30.25,East,90,2.0,4.0,36,0.00,,---,0.00,VWS V14.01,2013-11-30 00:10:00,
2013-11-29 16:11:00,52.5,26.3,30.26,East,90,3.0,4.0,36,0.00,,---,0.00,VWS V14.01,2013-11-30 00:11:00,
2013-11-29 16:12:00,52.5,26.3,30.25,East,90,2.0,3.0,36,0.00,,---,0.00,VWS V14.01,2013-11-30 00:12:00,
2013-11-29 16:13:00,52.4,26.2,30.25,East,90,3.0,4.0,36,0.00,,---,0.00,VWS V14.01,2013-11-30 00:13:00,
2013-11-29 16:14:00,52.4,26.2,30.26,East,90,3.0,4.0,36,0.00,,---,0.00,VWS V14.01,2013-11-30 00:14:00,
2013-11-29 16:17:00,52.3,26.2,30.26,East,90,3.0,4.0,36,0.00,,---,0.00,VWS V14.01,2013-11-30 00:17:00,
2013-11-29 16:18:00,52.3,26.2,30.26,East,90,3.0,4.0,36,0.00,,---,0.00,VWS V14.01,2013-11-30 00:18:00,
2013-11-29 16:19:00,52.3,26.8,30.26,East,90,2.0,4.0,37,0.00,,---,0.00,VWS V14.01,2013-11-30 00:19:00,
2013-11-29 16:21:00,52.2,26.7,30.26,East,90,2.0,4.0,37,0.00,,---,0.00,VWS V14.01,2013-11-30 00:21:00,
2013-11-29 16:22:00,52.2,26.7,30.26,East,90,2.0,3.0,37,0.00,,---,0.00,VWS V14.01,2013-11-30 00:22:00,
2013-11-29 16:23:00,52.1,26.6,30.26,East,90,2.0,3.0,37,0.00,,---,0.00,VWS V14.01,2013-11-30 00:23:00,
2013-11-29 16:25:00,52.0,26.5,30.26,East,90,2.0,3.0,37,0.00,,---,0.00,VWS V14.01,2013-11-30 00:25:00,
2013-11-29 16:27:00,51.9,27.1,30.26,East,90,2.0,3.0,38,0.00,,---,0.00,VWS V14.01,2013-11-30 00:27:00,
2013-11-29 16:28:00,51.8,27.0,30.26,East,90,2.0,3.0,38,0.00,,---,0.00,VWS V14.01,2013-11-30 00:28:00,
2013-11-29 16:29:00,51.8,27.0,30.26,East,90,2.0,3.0,38,0.00,,---,0.00,VWS V14.01,2013-11-30 00:29:00,
2013-11-29 16:30:00,51.7,26.9,30.26,East,90,2.0,3.0,38,0.00,,---,0.00,VWS V14.01,2013-11-30 00:30:00,
2013-11-29 16:33:00,51.7,26.3,30.27,East,90,2.0,3.0,37,0.00,,---,0.00,VWS V14.01,2013-11-30 00:33:00,
2013-11-29 16:34:00,51.6,26.8,30.27,East,90,2.0,3.0,38,0.00,,---,0.00,VWS V14.01,2013-11-30 00:34:00,
2013-11-29 16:35:00,51.6,26.8,30.27,East,90,1.0,3.0,38,0.00,,---,0.00,VWS V14.01,2013-11-30 00:35:00,
2013-11-29 16:37:00,51.6,26.8,30.27,East,90,1.0,3.0,38,0.00,,---,0.00,VWS V14.01,2013-11-30 00:37:00,
2013-11-29 16:39:00,51.6,26.8,30.27,East,90,1.0,3.0,38,0.00,,---,0.00,VWS V14.01,2013-11-30 00:39:00,
2013-11-29 16:40:00,51.6,26.8,30.27,East,90,1.0,3.0,38,0.00,,---,0.00,VWS V14.01,2013-11-30 00:40:00,
2013-11-29 16:41:00,51.5,26.8,30.27,East,90,1.0,3.0,38,0.00,,---,0.00,VWS V14.01,2013-11-30 00:41:00,
2013-11-29 16:42:00,51.6,26.2,30.27,East,90,0.0,3.0,37,0.00,,---,0.00,VWS V14.01,2013-11-30 00:42:00,
2013-11-29 16:43:00,51.5,26.1,30.27,East,90,1.0,1.0,37,0.00,,---,0.00,VWS V14.01,2013-11-30 00:43:00,
2013-11-29 16:45:00,51.5,26.8,30.27,East,90,1.0,1.0,38,0.00,,---,0.00,VWS V14.01,2013-11-30 00:45:00,
2013-11-29 16:46:00,51.5,26.8,30.27,East,90,1.0,1.0,38,0.00,,---,0.00,VWS V14.01,2013-11-30 00:46:00,
2013-11-29 16:47:00,51.5,26.1,30.27,East,90,1.0,1.0,37,0.00,,---,0.00,VWS V14.01,2013-11-30 00:47:00,
2013-11-29 16:49:00,51.5,26.1,30.27,East,90,1.0,2.0,37,0.00,,---,0.00,VWS V14.01,2013-11-30 00:49:00,
2013-11-29 16:52:00,51.4,26.0,30.27,East,90,1.0,2.0,37,0.00,,---,0.00,VWS V14.01,2013-11-30 00:52:00,
2013-11-29 16:54:00,51.4,26.7,30.27,East,90,1.0,2.0,38,0.00,,---,0.00,VWS V14.01,2013-11-30 00:54:00,
2013-11-29 16:55:00,51.3,26.6,30.27,East,90,1.0,2.0,38,0.00,,---,0.00,VWS V14.01,2013-11-30 00:55:00,
2013-11-29 16:57:00,51.2,26.5,30.27,East,90,1.0,2.0,38,0.00,,---,0.00,VWS V14.01,2013-11-30 00:57:00,
2013-11-29 16:59:00,51.1,26.4,30.27,East,90,1.0,2.0,38,0.00,,---,0.00,VWS V14.01,2013-11-30 00:59:00,
2013-11-29 17:01:00,50.9,26.2,30.27,East,90,2.0,3.0,38,0.00,,---,0.00,VWS V14.01,2013-11-30 01:01:00,
2013-11-29 17:02:00,50.8,26.1,30.27,East,90,2.0,3.0,38,0.00,,---,0.00,VWS V14.01,2013-11-30 01:02:00,
2013-11-29 17:03:00,50.6,26.0,30.27,East,90,2.0,3.0,38,0.00,,---,0.00,VWS V14.01,2013-11-30 01:03:00,
2013-11-29 17:04:00,50.5,25.9,30.27,East,90,2.0,3.0,38,0.00,,---,0.00,VWS V14.01,2013-11-30 01:04:00,
2013-11-29 17:05:00,50.3,25.7,30.28,East,90,2.0,3.0,38,0.00,,---,0.00,VWS V14.01,2013-11-30 01:05:00,
2013-11-29 17:06:00,50.3,25.7,30.28,East,90,2.0,3.0,38,0.00,,---,0.00,VWS V14.01,2013-11-30 01:06:00,
2013-11-29 17:08:00,50.3,25.7,30.28,East,90,3.0,3.0,38,0.00,,---,0.00,VWS V14.01,2013-11-30 01:08:00,
2013-11-29 17:10:00,50.0,26.0,30.28,East,90,3.0,4.0,39,0.00,,---,0.00,VWS V14.01,2013-11-30 01:10:00,
2013-11-29 17:11:00,49.9,26.0,30.28,East,90,4.0,4.0,39,0.00,,---,0.00,VWS V14.01,2013-11-30 01:11:00,
2013-11-29 17:12:00,49.8,25.9,30.28,East,90,3.0,4.0,39,0.00,,---,0.00,VWS V14.01,2013-11-30 01:12:00,
2013-11-29 17:13:00,49.8,25.9,30.28,East,90,3.0,4.0,39,0.00,,---,0.00,VWS V14.01,2013-11-30 01:13:00,
2013-11-29 17:16:00,49.4,25.5,30.28,NNW,333,4.0,5.0,39,0.00,,---,0.00,VWS V14.01,2013-11-30 01:16:00,
2013-11-29 17:17:00,49.4,25.5,30.28,NNW,333,3.0,5.0,39,0.00,,---,0.00,VWS V14.01,2013-11-30 01:17:00,
2013-11-29 17:18:00,49.4,25.5,30.28,NNW,333,4.0,5.0,39,0.00,,---,0.00,VWS V14.01,2013-11-30 01:18:00,
2013-11-29 17:19:00,49.4,25.5,30.28,NNW,333,4.0,5.0,39,0.00,,---,0.00,VWS V14.01,2013-11-30 01:19:00,
2013-11-29 17:21:00,49.4,25.5,30.28,NNW,333,3.0,5.0,39,0.00,,---,0.00,VWS V14.01,2013-11-30 01:21:00,
2013-11-29 17:22:00,49.4,25.5,30.28,NNW,333,3.0,5.0,39,0.00,,---,0.00,VWS V14.01,2013-11-30 01:22:00,
2013-11-29 17:24:00,49.3,25.4,30.28,NNW,333,3.0,4.0,39,0.00,,---,0.00,VWS V14.01,2013-11-30 01:24:00,
2013-11-29 17:27:00,49.2,25.9,30.29,NNW,327,4.0,5.0,40,0.00,,---,0.00,VWS V14.01,2013-11-30 01:27:00,
2013-11-29 17:28:00,49.1,25.8,30.28,NW,326,5.0,5.0,40,0.00,,---,0.00,VWS V14.01,2013-11-30 01:28:00,
2013-11-29 17:29:00,49.0,25.8,30.29,NW,326,3.0,5.0,40,0.00,,---,0.00,VWS V14.01,2013-11-30 01:29:00,
2013-11-29 17:31:00,48.9,25.7,30.29,NW,320,4.0,5.0,40,0.00,,---,0.00,VWS V14.01,2013-11-30 01:31:00,
2013-11-29 17:32:00,48.9,25.7,30.29,NW,320,3.0,5.0,40,0.00,,---,0.00,VWS V14.01,2013-11-30 01:32:00,
2013-11-29 17:33:00,48.8,25.6,30.29,NW,320,3.0,4.0,40,0.00,,---,0.00,VWS V14.01,2013-11-30 01:33:00,
2013-11-29 17:34:00,48.8,25.6,30.29,NW,320,3.0,4.0,40,0.00,,---,0.00,VWS V14.01,2013-11-30 01:34:00,
2013-11-29 17:37:00,48.8,25.6,30.29,NW,320,2.0,4.0,40,0.00,,---,0.00,VWS V14.01,2013-11-30 01:37:00,
2013-11-29 17:38:00,48.8,25.6,30.29,NW,320,2.0,4.0,40,0.00,,---,0.00,VWS V14.01,2013-11-30 01:38:00,
2013-11-29 17:39:00,48.9,25.7,30.29,NW,320,2.0,4.0,40,0.00,,---,0.00,VWS V14.01,2013-11-30 01:39:00,
2013-11-29 17:40:00,48.9,25.7,30.29,NW,320,2.0,4.0,40,0.00,,---,0.00,VWS V14.01,2013-11-30 01:40:00,
2013-11-29 17:42:00,48.7,26.1,30.29,NW,320,3.0,4.0,41,0.00,,---,0.00,VWS V14.01,2013-11-30 01:42:00,
2013-11-29 17:45:00,48.4,25.8,30.29,NW,320,2.0,4.0,41,0.00,,---,0.00,VWS V14.01,2013-11-30 01:45:00,
2013-11-29 17:46:00,48.3,25.7,30.29,NW,320,3.0,4.0,41,0.00,,---,0.00,VWS V14.01,2013-11-30 01:46:00,
2013-11-29 17:47:00,48.3,25.7,30.29,NW,309,4.0,5.0,41,0.00,,---,0.00,VWS V14.01,2013-11-30 01:47:00,
2013-11-29 17:48:00,48.2,26.2,30.29,NW,307,4.0,5.0,42,0.00,,---,0.00,VWS V14.01,2013-11-30 01:48:00,
2013-11-29 17:49:00,48.1,26.1,30.29,NW,307,4.0,5.0,42,0.00,,---,0.00,VWS V14.01,2013-11-30 01:49:00,
2013-11-29 17:50:00,48.0,26.0,30.29,NW,307,4.0,5.0,42,0.00,,---,0.00,VWS V14.01,2013-11-30 01:50:00,
2013-11-29 17:51:00,47.9,25.9,30.29,NW,307,4.0,5.0,42,0.00,,---,0.00,VWS V14.01,2013-11-30 01:51:00,
2013-11-29 17:52:00,47.9,25.4,30.28,NW,307,1.0,2.0,41,0.00,,---,0.00,VWS V14.01,2013-11-30 01:52:00,
2013-11-29 17:55:00,48.1,25.5,30.28,NW,307,1.0,2.0,41,0.00,,---,0.00,VWS V14.01,2013-11-30 01:55:00,
2013-11-29 17:56:00,48.1,25.5,30.28,NW,307,1.0,2.0,41,0.00,,---,0.00,VWS V14.01,2013-11-30 01:56:00,
2013-11-29 17:57:00,48.2,25.6,30.28,NW,307,0.0,2.0,41,0.00,,---,0.00,VWS V14.01,2013-11-30 01:57:00,
2013-11-29 17:58:00,48.3,25.7,30.28,NW,307,0.0,2.0,41,0.00,,---,0.00,VWS V14.01,2013-11-30 01:58:00,
2013-11-29 18:01:00,48.4,25.2,30.28,NW,307,1.0,2.0,40,0.00,,---,0.00,VWS V14.01,2013-11-30 02:01:00,
2013-11-29 18:03:00,48.5,25.3,30.28,NW,307,2.0,2.0,40,0.00,,---,0.00,VWS V14.01,2013-11-30 02:03:00,
2013-11-29 18:04:00,48.5,25.9,30.28,NW,307,3.0,3.0,41,0.00,,---,0.00,VWS V14.01,2013-11-30 02:04:00,
2013-11-29 18:07:00,48.2,25.6,30.29,NW,307,4.0,5.0,41,0.00,,---,0.00,VWS V14.01,2013-11-30 02:07:00,
2013-11-29 18:08:00,48.1,25.5,30.29,NW,306,4.0,5.0,41,0.00,,---,0.00,VWS V14.01,2013-11-30 02:08:00,
2013-11-29 18:09:00,48.0,26.0,30.28,WNW,294,5.0,5.0,42,0.00,,---,0.00,VWS V14.01,2013-11-30 02:09:00,
2013-11-29 18:11:00,47.8,25.8,30.28,WNW,294,3.0,5.0,42,0.00,,---,0.00,VWS V14.01,2013-11-30 02:11:00,
2013-11-29 18:13:00,47.7,25.8,30.29,WNW,294,4.0,5.0,42,0.00,,---,0.00,VWS V14.01,2013-11-30 02:13:00,
2013-11-29 18:14:00,47.6,25.7,30.29,WNW,294,4.0,5.0,42,0.00,,---,0.00,VWS V14.01,2013-11-30 02:14:00,
2013-11-29 18:15:00,47.6,25.7,30.29,WNW,294,4.0,5.0,42,0.00,,---,0.00,VWS V14.01,2013-11-30 02:15:00,
2013-11-29 18:19:00,47.7,25.8,30.28,WNW,284,4.0,6.0,42,0.00,,---,0.00,VWS V14.01,2013-11-30 02:19:00,
2013-11-29 18:20:00,47.7,25.8,30.28,WNW,284,4.0,6.0,42,0.00,,---,0.00,VWS V14.01,2013-11-30 02:20:00,
2013-11-29 18:21:00,47.8,25.8,30.28,WNW,284,4.0,6.0,42,0.00,,---,0.00,VWS V14.01,2013-11-30 02:21:00,
2013-11-29 18:25:00,48.1,26.1,30.28,WNW,284,1.0,4.0,42,0.00,,---,0.00,VWS V14.01,2013-11-30 02:25:00,
2013-11-29 18:26:00,48.1,26.1,30.28,WNW,284,3.0,4.0,42,0.00,,---,0.00,VWS V14.01,2013-11-30 02:26:00,
2013-11-29 18:27:00,48.1,26.1,30.28,WNW,284,2.0,4.0,42,0.00,,---,0.00,VWS V14.01,2013-11-30 02:27:00,
2013-11-29 18:28:00,48.0,26.6,30.28,SSW,213,4.0,4.0,43,0.00,,---,0.00,VWS V14.01,2013-11-30 02:28:00,
2013-11-29 18:30:00,47.7,26.3,30.28,SSW,211,5.0,6.0,43,0.00,,---,0.00,VWS V14.01,2013-11-30 02:30:00,
2013-11-29 18:31:00,47.6,26.2,30.28,SSW,211,5.0,6.0,43,0.00,,---,0.00,VWS V14.01,2013-11-30 02:31:00,
2013-11-29 18:33:00,47.2,26.4,30.28,SSW,211,5.0,6.0,44,0.00,,---,0.00,VWS V14.01,2013-11-30 02:33:00,
2013-11-29 18:35:00,46.7,26.5,30.28,SSW,207,6.0,7.0,45,0.00,,---,0.00,VWS V14.01,2013-11-30 02:35:00,
2013-11-29 18:37:00,46.4,26.8,30.29,SSW,200,7.0,8.0,46,0.00,,---,0.00,VWS V14.01,2013-11-30 02:37:00,
2013-11-29 18:38:00,46.1,27.0,30.28,SSW,200,8.0,8.0,47,0.00,,---,0.00,VWS V14.01,2013-11-30 02:38:00,
2013-11-29 18:41:00,45.5,27.0,30.28,SSW,205,7.0,8.0,48,0.00,,---,0.00,VWS V14.01,2013-11-30 02:41:00,
2013-11-29 18:42:00,45.3,27.3,30.28,SSW,199,6.0,8.0,49,0.00,,---,0.00,VWS V14.01,2013-11-30 02:42:00,
2013-11-29 18:44:00,45.1,26.6,30.28,SSW,205,6.0,9.0,48,0.00,,---,0.00,VWS V14.01,2013-11-30 02:44:00,
2013-11-29 18:47:00,45.4,26.4,30.29,SW,214,6.0,9.0,47,0.00,,---,0.00,VWS V14.01,2013-11-30 02:47:00,
2013-11-29 18:48:00,45.6,26.5,30.29,SW,214,4.0,9.0,47,0.00,,---,0.00,VWS V14.01,2013-11-30 02:48:00,
2013-11-29 18:49:00,45.7,26.6,30.29,SW,214,5.0,9.0,47,0.00,,---,0.00,VWS V14.01,2013-11-30 02:49:00,
2013-11-29 18:50:00,45.9,26.3,30.29,SW,214,4.0,9.0,46,0.00,,---,0.00,VWS V14.01,2013-11-30 02:50:00,
2013-11-29 18:51:00,45.9,26.3,30.29,SW,214,5.0,9.0,46,0.00,,---,0.00,VWS V14.01,2013-11-30 02:51:00,
2013-11-29 18:53:00,46.1,26.5,30.29,SSW,210,6.0,6.0,46,0.00,,---,0.00,VWS V14.01,2013-11-30 02:53:00,
2013-11-29 18:54:00,46.1,26.5,30.29,SSW,212,5.0,7.0,46,0.00,,---,0.00,VWS V14.01,2013-11-30 02:54:00,
2013-11-29 18:55:00,46.2,26.6,30.29,SW,215,5.0,8.0,46,0.00,,---,0.00,VWS V14.01,2013-11-30 02:55:00,
2013-11-29 18:56:00,46.2,26.6,30.29,SSW,202,6.0,8.0,46,0.00,,---,0.00,VWS V14.01,2013-11-30 02:56:00,
2013-11-29 18:57:00,46.1,26.5,30.29,SSW,208,6.0,8.0,46,0.00,,---,0.00,VWS V14.01,2013-11-30 02:57:00,
2013-11-29 18:59:00,45.9,26.8,30.29,SSW,204,6.0,9.0,47,0.00,,---,0.00,VWS V14.01,2013-11-30 02:59:00,
2013-11-29 19:01:00,45.8,26.7,30.29,SSW,209,7.0,9.0,47,0.00,,---,0.00,VWS V14.01,2013-11-30 03:01:00,
2013-11-29 19:02:00,45.6,27.1,30.29,SSW,202,8.0,9.0,48,0.00,,---,0.00,VWS V14.01,2013-11-30 03:02:00,
2013-11-29 19:04:00,45.4,26.9,30.29,SSW,210,6.0,9.0,48,0.00,,---,0.00,VWS V14.01,2013-11-30 03:04:00,
2013-11-29 19:05:00,45.4,26.9,30.29,SSW,202,7.0,9.0,48,0.00,,---,0.00,VWS V14.01,2013-11-30 03:05:00,
2013-11-29 19:07:00,45.2,27.2,30.29,SSW,210,5.0,9.0,49,0.00,,---,0.00,VWS V14.01,2013-11-30 03:07:00,
2013-11-29 19:08:00,45.2,27.2,30.29,SSW,206,5.0,9.0,49,0.00,,---,0.00,VWS V14.01,2013-11-30 03:08:00,
2013-11-29 19:09:00,45.2,27.2,30.28,SSW,209,8.0,9.0,49,0.00,,---,0.00,VWS V14.01,2013-11-30 03:09:00,
2013-11-29 19:10:00,45.2,27.2,30.28,SSW,213,7.0,9.0,49,0.00,,---,0.00,VWS V14.01,2013-11-30 03:10:00,
2013-11-29 19:11:00,45.2,27.2,30.28,SSW,207,7.0,9.0,49,0.00,,---,0.00,VWS V14.01,2013-11-30 03:11:00,
2013-11-29 19:12:00,45.1,27.1,30.28,SSW,208,6.0,7.0,49,0.00,,---,0.00,VWS V14.01,2013-11-30 03:12:00,
2013-11-29 19:14:00,45.2,27.2,30.28,SW,219,5.0,8.0,49,0.00,,---,0.00,VWS V14.01,2013-11-30 03:14:00,
2013-11-29 19:15:00,45.2,27.2,30.28,SSW,211,6.0,8.0,49,0.00,,---,0.00,VWS V14.01,2013-11-30 03:15:00,
2013-11-29 19:17:00,45.3,27.3,30.28,SW,221,6.0,8.0,49,0.00,,---,0.00,VWS V14.01,2013-11-30 03:17:00,
2013-11-29 19:18:00,45.4,27.4,30.28,SW,223,4.0,8.0,49,0.00,,---,0.00,VWS V14.01,2013-11-30 03:18:00,
2013-11-29 19:19:00,45.3,27.3,30.28,SSW,209,5.0,8.0,49,0.00,,---,0.00,VWS V14.01,2013-11-30 03:19:00,
2013-11-29 19:21:00,45.4,27.4,30.29,SW,220,4.0,8.0,49,0.00,,---,0.00,VWS V14.01,2013-11-30 03:21:00,
2013-11-29 19:22:00,45.5,27.5,30.29,SW,223,4.0,7.0,49,0.00,,---,0.00,VWS V14.01,2013-11-30 03:22:00,
2013-11-29 19:24:00,45.6,27.1,30.29,SW,224,3.0,7.0,48,0.00,,---,0.00,VWS V14.01,2013-11-30 03:24:00,
2013-11-29 19:26:00,45.7,27.1,30.29,SSW,210,3.0,7.0,48,0.00,,---,0.00,VWS V14.01,2013-11-30 03:26:00,
2013-11-29 19:28:00,45.7,27.1,30.29,SSW,199,4.0,7.0,48,0.00,,---,0.00,VWS V14.01,2013-11-30 03:28:00,
2013-11-29 19:30:00,45.7,27.1,30.29,SSW,197,4.0,7.0,48,0.00,,---,0.00,VWS V14.01,2013-11-30 03:30:00,
2013-11-29 19:31:00,45.6,27.6,30.28,South,190,4.0,7.0,49,0.00,,---,0.00,VWS V14.01,2013-11-30 03:31:00,
2013-11-29 19:32:00,45.6,27.6,30.28,South,190,4.0,7.0,49,0.00,,---,0.00,VWS V14.01,2013-11-30 03:32:00,
2013-11-29 19:33:00,45.5,27.5,30.29,South,190,5.0,5.0,49,0.00,,---,0.00,VWS V14.01,2013-11-30 03:33:00,
2013-11-29 19:35:00,45.2,27.7,30.29,South,190,4.0,6.0,50,0.00,,---,0.00,VWS V14.01,2013-11-30 03:35:00,
2013-11-29 19:37:00,44.9,27.4,30.29,South,191,4.0,6.0,50,0.00,,---,0.00,VWS V14.01,2013-11-30 03:37:00,
2013-11-29 19:38:00,44.8,27.3,30.29,SSW,208,5.0,7.0,50,0.00,,---,0.00,VWS V14.01,2013-11-30 03:38:00,
2013-11-29 19:40:00,44.7,27.7,30.29,SSW,209,6.0,7.0,51,0.00,,---,0.00,VWS V14.01,2013-11-30 03:40:00,
2013-11-29 19:42:00,44.7,27.7,30.29,SW,216,5.0,5.0,51,0.00,,---,0.00,VWS V14.01,2013-11-30 03:42:00,
2013-11-29 19:44:00,44.7,27.2,30.29,SSW,211,6.0,7.0,50,0.00,,---,0.00,VWS V14.01,2013-11-30 03:44:00,
2013-11-29 19:45:00,44.7,27.2,30.29,SSW,204,8.0,8.0,50,0.00,,---,0.00,VWS V14.01,2013-11-30 03:45:00,
2013-11-29 19:46:00,44.8,27.3,30.29,SSW,209,7.0,9.0,50,0.00,,---,0.00,VWS V14.01,2013-11-30 03:46:00,
2013-11-29 19:47:00,44.9,27.4,30.29,SW,217,8.0,9.0,50,0.00,,---,0.00,VWS V14.01,2013-11-30 03:47:00,
2013-11-29 19:48:00,44.9,27.4,30.29,SSW,213,9.0,9.0,50,0.00,,---,0.00,VWS V14.01,2013-11-30 03:48:00,
2013-11-29 19:49:00,44.9,27.4,30.29,SW,215,6.0,9.0,50,0.00,,---,0.00,VWS V14.01,2013-11-30 03:49:00,
2013-11-29 19:50:00,44.9,27.4,30.29,SW,215,8.0,11.0,50,0.00,,---,0.00,VWS V14.01,2013-11-30 03:50:00,
2013-11-29 19:53:00,44.9,27.4,30.29,SSW,209,8.0,10.0,50,0.00,,---,0.00,VWS V14.01,2013-11-30 03:53:00,
2013-11-29 19:54:00,44.9,27.4,30.29,SSW,207,6.0,10.0,50,0.00,,---,0.00,VWS V14.01,2013-11-30 03:54:00,
2013-11-29 19:55:00,44.8,27.3,30.29,SSW,206,7.0,10.0,50,0.00,,---,0.00,VWS V14.01,2013-11-30 03:55:00,
2013-11-29 19:58:00,44.7,27.2,30.29,SSW,200,8.0,10.0,50,0.00,,---,0.00,VWS V14.01,2013-11-30 03:58:00,
2013-11-29 19:59:00,44.7,27.2,30.29,SSW,198,6.0,10.0,50,0.00,,---,0.00,VWS V14.01,2013-11-30 03:59:00,
2013-11-29 20:00:00,44.6,27.6,30.29,SSW,209,8.0,10.0,51,0.00,,---,0.00,VWS V14.01,2013-11-30 04:00:00,
2013-11-29 20:04:00,44.5,27.5,30.29,SSW,194,8.0,11.0,51,0.00,,---,0.00,VWS V14.01,2013-11-30 04:04:00,
2013-11-29 20:05:00,44.4,27.4,30.29,SSW,209,10.0,11.0,51,0.00,,---,0.00,VWS V14.01,2013-11-30 04:05:00,
2013-11-29 20:06:00,44.4,27.4,30.29,SSW,202,9.0,11.0,51,0.00,,---,0.00,VWS V14.01,2013-11-30 04:06:00,
2013-11-29 20:10:00,44.2,28.2,30.29,South,189,5.0,11.0,53,0.00,,---,0.00,VWS V14.01,2013-11-30 04:10:00,
2013-11-29 20:11:00,44.1,28.1,30.29,SSW,197,10.0,11.0,53,0.00,,---,0.00,VWS V14.01,2013-11-30 04:11:00,
2013-11-29 20:12:00,44.1,28.1,30.29,SSW,202,8.0,11.0,53,0.00,,---,0.00,VWS V14.01,2013-11-30 04:12:00,
2013-11-29 20:13:00,44.0,28.0,30.29,SSW,204,7.0,9.0,53,0.00,,---,0.00,VWS V14.01,2013-11-30 04:13:00,
2013-11-29 20:16:00,44.0,28.0,30.29,SSW,194,7.0,10.0,53,0.00,,---,0.00,VWS V14.01,2013-11-30 04:16:00,
2013-11-29 20:17:00,44.0,28.0,30.29,SSW,202,7.0,10.0,53,0.00,,---,0.00,VWS V14.01,2013-11-30 04:17:00,
2013-11-29 20:18:00,44.0,28.0,30.29,SW,215,10.0,10.0,53,0.00,,---,0.00,VWS V14.01,2013-11-30 04:18:00,
2013-11-29 20:20:00,44.0,28.0,30.29,SW,214,6.0,11.0,53,0.00,,---,0.00,VWS V14.01,2013-11-30 04:20:00,
2013-11-29 20:21:00,44.0,28.0,30.29,SSW,199,7.0,11.0,53,0.00,,---,0.00,VWS V14.01,2013-11-30 04:21:00,
2013-11-29 20:23:00,44.1,28.1,30.29,SSW,202,6.0,9.0,53,0.00,,---,0.00,VWS V14.01,2013-11-30 04:23:00,
2013-11-29 20:25:00,44.1,28.1,30.29,SSW,205,11.0,11.0,53,0.00,,---,0.00,VWS V14.01,2013-11-30 04:25:00,
2013-11-29 20:26:00,44.1,28.1,30.29,SSW,200,7.0,11.0,53,0.00,,---,0.00,VWS V14.01,2013-11-30 04:26:00,
2013-11-29 20:27:00,44.1,28.1,30.29,SSW,209,8.0,11.0,53,0.00,,---,0.00,VWS V14.01,2013-11-30 04:27:00,
2013-11-29 20:29:00,44.1,28.1,30.29,SSW,212,8.0,11.0,53,0.00,,---,0.00,VWS V14.01,2013-11-30 04:29:00,
2013-11-29 20:30:00,44.1,28.1,30.29,SSW,198,9.0,12.0,53,0.00,,---,0.00,VWS V14.01,2013-11-30 04:30:00,
2013-11-29 20:31:00,44.1,28.1,30.29,SSW,200,9.0,12.0,53,0.00,,---,0.00,VWS V14.01,2013-11-30 04:31:00,
2013-11-29 20:32:00,44.1,28.1,30.29,SSW,203,7.0,12.0,53,0.00,,---,0.00,VWS V14.01,2013-11-30 04:32:00,
2013-11-29 20:35:00,44.0,28.4,30.29,South,190,6.0,8.0,54,0.00,,---,0.00,VWS V14.01,2013-11-30 04:35:00,
2013-11-29 20:36:00,44.0,28.4,30.29,SSW,196,7.0,8.0,54,0.00,,---,0.00,VWS V14.01,2013-11-30 04:36:00,
2013-11-29 20:38:00,44.0,28.4,30.29,SSW,206,5.0,8.0,54,0.00,,---,0.00,VWS V14.01,2013-11-30 04:38:00,
2013-11-29 20:40:00,44.0,28.4,30.29,SSW,193,3.0,8.0,54,0.00,,---,0.00,VWS V14.01,2013-11-30 04:40:00,
2013-11-29 20:41:00,44.0,28.4,30.29,South,186,4.0,8.0,54,0.00,,---,0.00,VWS V14.01,2013-11-30 04:41:00,
2013-11-29 20:42:00,43.9,28.4,30.29,SSW,192,4.0,8.0,54,0.00,,---,0.00,VWS V14.01,2013-11-30 04:42:00,
2013-11-29 20:43:00,43.9,28.4,30.29,South,178,3.0,5.0,54,0.00,,---,0.00,VWS V14.01,2013-11-30 04:43:00,
2013-11-29 20:45:00,43.8,28.2,30.29,South,188,5.0,6.0,54,0.00,,---,0.00,VWS V14.01,2013-11-30 04:45:00,
2013-11-29 20:46:00,43.8,28.2,30.29,South,188,2.0,6.0,54,0.00,,---,0.00,VWS V14.01,2013-11-30 04:46:00,
2013-11-29 20:47:00,43.8,28.2,30.29,South,182,4.0,6.0,54,0.00,,---,0.00,VWS V14.01,2013-11-30 04:47:00,
2013-11-29 20:49:00,43.7,28.6,30.29,SSW,213,5.0,6.0,55,0.00,,---,0.00,VWS V14.01,2013-11-30 04:49:00,
2013-11-29 20:52:00,43.6,28.5,30.29,SSW,201,3.0,6.0,55,0.00,,---,0.00,VWS V14.01,2013-11-30 04:52:00,
2013-11-29 20:53:00,43.6,28.5,30.29,SSW,201,2.0,4.0,55,0.00,,---,0.00,VWS V14.01,2013-11-30 04:53:00,
2013-11-29 20:55:00,43.6,28.5,30.29,SW,227,6.0,7.0,55,0.00,,---,0.00,VWS V14.01,2013-11-30 04:55:00,
2013-11-29 20:58:00,43.7,28.6,30.29,SSW,209,4.0,10.0,55,0.00,,---,0.00,VWS V14.01,2013-11-30 04:58:00,
2013-11-29 21:00:00,43.9,28.8,30.29,SSW,206,10.0,11.0,55,0.00,,---,0.00,VWS V14.01,2013-11-30 05:00:00,
2013-11-29 21:01:00,44.0,28.9,30.29,SSW,207,7.0,12.0,55,0.00,,---,0.00,VWS V14.01,2013-11-30 05:01:00,
2013-11-29 21:02:00,44.1,29.0,30.29,SSW,206,10.0,12.0,55,0.00,,---,0.00,VWS V14.01,2013-11-30 05:02:00,
2013-11-29 21:06:00,44.3,28.7,30.29,SSW,193,7.0,14.0,54,0.00,,---,0.00,VWS V14.01,2013-11-30 05:06:00,
2013-11-29 21:07:00,44.3,28.7,30.29,SW,226,9.0,14.0,54,0.00,,---,0.00,VWS V14.01,2013-11-30 05:07:00,
2013-11-29 21:08:00,44.4,28.8,30.29,SSW,207,11.0,17.0,54,0.00,,---,0.00,VWS V14.01,2013-11-30 05:08:00,
2013-11-29 21:09:00,44.5,28.9,30.29,SSW,203,10.0,17.0,54,0.00,,---,0.00,VWS V14.01,2013-11-30 05:09:00,
2013-11-29 21:12:00,44.7,28.6,30.29,SW,236,11.0,17.0,53,0.00,,---,0.00,VWS V14.01,2013-11-30 05:12:00,
2013-11-29 21:13:00,44.7,28.6,30.29,SSW,212,12.0,14.0,53,0.00,,---,0.00,VWS V14.01,2013-11-30 05:13:00,
2013-11-29 21:14:00,44.7,28.6,30.29,SW,220,16.0,16.0,53,0.00,,---,0.00,VWS V14.01,2013-11-30 05:14:00,
2013-11-29 21:16:00,44.7,28.6,30.29,SW,219,13.0,16.0,53,0.00,,---,0.00,VWS V14.01,2013-11-30 05:16:00,
2013-11-29 21:17:00,44.6,28.5,30.29,WSW,242,9.0,16.0,53,0.00,,---,0.00,VWS V14.01,2013-11-30 05:17:00,
2013-11-29 21:19:00,44.6,28.5,30.29,WNW,284,6.0,16.0,53,0.00,,---,0.00,VWS V14.01,2013-11-30 05:19:00,
2013-11-29 21:21:00,44.3,28.7,30.30,WNW,284,6.0,16.0,54,0.00,,---,0.00,VWS V14.01,2013-11-30 05:21:00,
2013-11-29 21:22:00,44.2,28.6,30.30,WNW,284,3.0,3.0,54,0.00,,---,0.00,VWS V14.01,2013-11-30 05:22:00,
2013-11-29 21:23:00,44.2,28.6,30.30,WNW,284,3.0,4.0,54,0.00,,---,0.00,VWS V14.01,2013-11-30 05:23:00,
2013-11-29 21:24:00,44.0,28.4,30.30,West,277,7.0,7.0,54,0.00,,---,0.00,VWS V14.01,2013-11-30 05:24:00,
2013-11-29 21:25:00,44.0,28.4,30.30,WNW,284,9.0,9.0,54,0.00,,---,0.00,VWS V14.01,2013-11-30 05:25:00,
2013-11-29 21:27:00,43.9,28.4,30.30,West,281,4.0,9.0,54,0.00,,---,0.00,VWS V14.01,2013-11-30 05:27:00,
2013-11-29 21:28:00,43.9,28.4,30.30,West,276,4.0,9.0,54,0.00,,---,0.00,VWS V14.01,2013-11-30 05:28:00,